Find GPS III SV03

NORAD ID: 45854 Int'l Des: 2020-041 Owner: SMC Country: US Constellation: GPS operational
MEOCIRCULARGNSS

現在のビュー

3D地球を読み込み中...

About GPS III SV03

GPS III SV03 (NORAD 45854) is a GPS constellation satellite launched Jun 30, 2020 by SMC of US. It operates in MEO, CIRCULAR, GNSS orbit with a mass of 4400.00 kg.

GPS III SV03について

説明を読み込み中...

次回通過

Passes for default location (London). Set your location on the main map for personalized predictions.

高度履歴

Loading altitude history...

軌道要素

1 45854U 20041A 26162.56161249 -.00000063 00000-0 00000+0 0 9993
2 45854 56.6657 29.1622 0063604 204.6361 19.3768 2.00558626 43922
Epoch: Jun 11, 2026 • Age: 101 hours

現在のステータス

高度 20351.3 km
速度 3.85 km/s
衛星直下点 17.60°N, 139.51°W
打ち上げ日 Jun 30, 2020
運用期間 5.9 years
タイプ navigation

技術仕様

分類 Payload
質量 4400.00 kg
乾燥質量 2160.00 kg
総質量 4400.00 kg
長さ 3.40 m
直径 1.80 m
スパン 14.00 m
形状 Box + 2 pan
製造者 LMSSD
バスタイプ A2100
フェーズステータス In Orbit
所有者/国 SMC/US

Most Searched